Regional Weather Roundup
Issued by NWS

Home | Current Version | Previous Version | Text Only | Print | Product List | Glossary On
Versions: 1 2 3 4 5 6 7 8 9 10 11 12 13 14 15 16 17 18 19 20 21 22 23 24 25 26 27 28 29 30 31 32 33 34 35 36 37 38 39 40 41 42 43 44 45 46 47 48 49 50
000
ASUS42 KTBW 280110
RWRFL
FLORIDA REGIONAL WEATHER ROUNDUP
NATIONAL WEATHER SERVICE TAMPA BAY RUSKIN FL
900 PM EDT WED AUG 27 2014

NOTE: "FAIR" INDICATES FEW OR NO CLOUDS BELOW 12,000 FEET WITH NO
SIGNIFICANT WEATHER AND/OR OBSTRUCTIONS TO VISIBILITY.


FLZ001>010-012>015-112-114-115-280200-
PANHANDLE FLORIDA

CITY           SKY/WX    TMP DP  RH WIND       PRES   REMARKS
PENSACOLA      MOCLDY    81  69  67 SW7       29.98R
PENSACOLA NAS  MOCLDY    81  71  71 SW3       29.98R
MILTON NAS     MOCLDY    80  69  69 SW6       29.98S
CRESTVIEW      PTCLDY    82  70  66 SW3       29.99S
DUKE FIELD     MOCLDY    83  71  67 SW6       29.98S
VALPARAISO     MOCLDY    83  70  64 W5        29.98R
TRI COUNTY     FAIR      78  73  84 CALM      29.99R
PANAMA CITY    FAIR      81  71  71 S3        29.97R
TYNDALL AFB    CLEAR     82  72  71 SW6       29.99R
APALACHICOLA   CLEAR     79  70  74 CALM      29.98R

STATION/POSITION SKY/WX   TEMP    WIND        PRES    WAVE   SWELL
                          AIR SEA DIR/SP/G            HT/PER HT/PER
                          (F)     (DEG/KT/KT) (MB)    (FT/S) (FT/S)
30.1N   87.6W              84 85  180/  8/ 10 1015.1R   3/ 6   3/ 6
29.2N   88.2W              85 86  110/ 12/ 12 1015.0
28.8N   86.0W              85 87  100/  8/ 12 1014.8    4/ 6   3/ 6
PANAMA CITY BEAC           84 85  220/  5/  7 1015.2R
CAPE SAN BLAS    NOT AVBL
TOWER C                    83     130/  6/  7 1015.1R
28.5N   84.5W              83 87   50/  8/ 10 1015.0R   2/ 5   2/ 5

$$
FLZ011-016>038-118-127-128-134-139-239-280200-
NORTH FLORIDA

CITY           SKY/WX    TMP DP  RH WIND       PRES   REMARKS
MARIANNA       CLEAR     83  67  58 CALM      29.97R
TALLAHASSEE    PTCLDY    82  64  54 CALM      29.98R
PERRY          CLEAR     77  68  73 CALM      29.99R
CROSS CITY       N/A     77  66  68 CALM      29.98R
LAKE CITY      FAIR      70  63  78 CALM      29.99R
GAINESVILLE    CLEAR     76  69  79 E6        30.00R
MAYPORT NAS    CLEAR     79  65  62 E9        30.00R
JACKSONVILLE   CLEAR     73  66  78 S3        30.00R
JAX NAS        CLEAR     83  63  50 E7        30.01R
JAX CRAIG      CLEAR     76  65  68 CALM      30.00R
JAX CECIL      CLEAR     73  66  78 E3        30.01R
FERNANDINA BEA FAIR      79  63  57 E5        30.00R
ST AUGUSTINE   CLEAR     78  67  68 NE7       30.01R

STATION/POSITION SKY/WX   TEMP    WIND        PRES    WAVE   SWELL
                          AIR SEA DIR/SP/G            HT/PER HT/PER
                          (F)     (DEG/KT/KT) (MB)    (FT/S) (FT/S)
SHELL POINT                86     180/  4/  5   N/A
KEATON BEACH               82      60/  2/  2 1015.5R
CEDAR KEY                  83      20/  3/  4 1015.5R
FERNANDINA                 78 83  120/  2/  5 1015.5R
30.7N   81.3W                 83                N/A     4/10   2/11
MAYPORT                    80 83   80/  7/  9   N/A
31.4N   80.9W              80 84   90/ 10/ 12 1015.7R   4/11   3/11
ST AUGUSTINE               80      50/  9/ 11 1016.6R

$$
FLZ040-043>046-052-053-057-058-063-144-280200-
INTERIOR CENTRAL FLORIDA

CITY           SKY/WX    TMP DP  RH WIND       PRES   REMARKS
OCALA          CLEAR     81  68  65 E6        30.00R
LEESBURG       CLEAR     81  70  69 E10       30.01R
SANFORD        CLEAR     78  69  73 E7        30.00R
ORLANDO EXEC   CLEAR     81  69  67 NE8       30.00R
ORLANDO INTL   PTCLDY    79  69  71 NE9       30.00R
KISSIMMEE      PTCLDY    81  72  74 E8        30.00R
WINTER HAVEN   PTCLDY    82  69  64 E10       30.00R
LAKELAND       MOCLDY    82  72  69 E10       29.98R
BARTOW         MOCLDY    81  70  69 E9        29.99R
OKEECHOBEE     CLOUDY    79  73  83 MISG      29.98R

$$
FLZ041-047-054-059-064-141-147-280200-
EAST CENTRAL FLORIDA

CITY           SKY/WX    TMP DP  RH WIND       PRES   REMARKS
DAYTONA BEACH  PTCLDY    79  69  71 NE8       30.00R
DELAND         CLEAR     77  68  73 CALM      30.01R
JFK SPACE CTR  MOCLDY    77  73  88 E3        30.00R
TITUSVILLE     PTCLDY    81  73  78 E14       30.00R
CAPE CANAVERAL CLEAR     79  73  81 NE3       29.99R
PATRICK AFB    CLEAR     81  74  81 NE9       29.99R
MELBOURNE      CLEAR     81  74  79 NE12      29.99R
VERO BEACH     CLEAR     80  74  81 N9        29.98R
FT PIERCE      CLEAR     81  74  79 NE5       29.98R
STUART         CLEAR     81  72  74 E6        29.99R

STATION/POSITION SKY/WX   TEMP    WIND        PRES    WAVE   SWELL
                          AIR SEA DIR/SP/G            HT/PER HT/PER
                          (F)     (DEG/KT/KT) (MB)    (FT/S) (FT/S)
28.5N   80.2W              82 83   30/ 10/ 12 1015.2R
28.9N   78.5W              82 84   30/  4/  6 1015.6R  10/11  10/11
TRIDENT PIER               78 83   30/  5/  6 1015.2R
28.4N   80.5W                 83                N/A     4/ 9   2/11
27.6N   80.2W                 83                N/A     5/11   3/11

$$
FLZ050-056-061-142-242-148-248-149-249-151-251-155-255-
160-260-280200-
WEST CENTRAL FLORIDA

CITY           SKY/WX    TMP DP  RH WIND       PRES   REMARKS
CRYSTAL RIVER  FAIR      79  68  69 NE5       29.98R
INVERNESS      FAIR      81  59  47 E3        29.99R
BROOKSVILLE    CLOUDY    81  70  69 NE6       29.98R
ZEPHYRHILLS    FAIR      81  70  69 E5        29.99R
CLEARWATER     MOCLDY    86  71  60 N9        29.95R
TAMPA INTL     MOCLDY    86  68  54 N10       29.96R
TAMPA EXEC     MOCLDY    84  72  65 E6        29.97R
MACDILL AFB    CLEAR     85  73  66 E12       29.95R
ST PETERSBURG  CLEAR     87  71  58 N10       29.93R
SARASOTA       CLOUDY    85  74  69 N6        29.94R
VENICE           N/A    N/A N/A N/A MISG        N/A

STATION/POSITION SKY/WX   TEMP    WIND        PRES    WAVE   SWELL
                          AIR SEA DIR/SP/G            HT/PER HT/PER
                          (F)     (DEG/KT/KT) (MB)    (FT/S) (FT/S)
CEDAR KEY                  83      20/  3/  4 1015.5R
28.5N   84.5W              83 87   50/  8/ 10 1015.0R   2/ 5   2/ 5
27.3N   84.3W                 87                N/A     3/ 5
CLEARWATER BEACH           85 87  360/ 15/ 18 1013.9R
MIDDLE TAMPA BAY           87      20/ 11/ 14 1014.2R
VENICE                     85 88  300/ 10/ 11 1014.0R

$$
FLZ066-069-070-075>078-162-262-165-265-280200-
SOUTHWEST FLORIDA AND KEYS

CITY           SKY/WX    TMP DP  RH WIND       PRES   REMARKS
PUNTA GORDA    CLEAR     83  73  72 CALM      29.97R
FT MYERS       CLEAR     84  63  49 E5        29.94R
SOUTHWEST INTL CLEAR     82  65  56 E6        29.95R
NAPLES         PTCLDY    87  72  60 N3        29.94R
MARCO ISLAND   CLEAR     84  73  70 W3        29.94R
MARATHON       PTCLDY    86  77  74 E12G18    29.94R HX  97
KEY WEST NAS   MOCLDY    86  76  71 E18       29.93R HX  96
KEY WEST INTL  CLEAR     87  76  69 E17       29.93R HX  97

STATION/POSITION SKY/WX   TEMP    WIND        PRES    WAVE   SWELL
                          AIR SEA DIR/SP/G            HT/PER HT/PER
                          (F)     (DEG/KT/KT) (MB)    (FT/S) (FT/S)
VENICE                     85 88  300/ 10/ 11 1014.0R
NAPLES                     88     330/  7/  8 1014.3R
DRY TORTUGAS               86     110/ 18/ 19 1013.2R
NW FL BAY                  87     110/ 15/ 18 1013.5R
SAND KEY                   85     100/ 19/ 21 1013.3R
SOMBRERO KEY               85      70/ 16/ 17 1014.2R
LONG KEY                   85 87  100/ 16/ 18 1014.8R
MOLASSES REEF              85 87   80/ 12/ 14 1014.2R

$$
FLZ067-068-071>074-168-172>174-280200-
SOUTHEAST FLORIDA

CITY           SKY/WX    TMP DP  RH WIND       PRES   REMARKS
W PALM BEACH   PTCLDY    84  73  69 E10       29.96R
FT LAUDER-EXEC CLEAR     84  74  71 E9        29.96R
FT LAUDERDALE  PTCLDY    85  71  63 E10       29.96R
POMPANO BEACH  CLEAR     85  71  63 E8        29.97R
PEMBROKE PINES CLEAR     83  73  72 E9        29.97R
OPA LOCKA      CLEAR     83  72  69 E8        29.96S
MIAMI          PTCLDY    84  72  67 E9        29.96R
WEST KENDALL   PTCLDY    84  72  67 E8        29.96R
HOMESTEAD      PTCLDY    85  72  64 E6        29.96R

STATION/POSITION SKY/WX   TEMP    WIND        PRES    WAVE   SWELL
                          AIR SEA DIR/SP/G            HT/PER HT/PER
                          (F)     (DEG/KT/KT) (MB)    (FT/S) (FT/S)
PORT EVERGLADES            85     100/  4/  8 1014.5
VIRGINIA KEY               85 87   90/  7/  9   N/A
LAKE WORTH                 84 87   70/  9/ 10 1014.6R
FOWEY ROCKS                85 87  110/ 11/ 12 1014.8R
SETTLEMENT POINT           84      70/  9/ 10 1015.9R

$$




USA.gov is the U.S. government's official web portal to all federal, state and local government web resources and services.